DAL375 CYYZ-KBOS

Flight info

Callsign DAL375
Flight time N/A
Altitude 39000
Route KEPTA3 BMPAH DCT AEVON DCT HANKK DCT PONCT JFUND2
Aircraft A21N/M-SDE2E3FGHIRWXY/LB1

Departure

Time 2026-05-08 01:39
Airport Toronto Pearson International Airport (CYYZ)

Arrival

Time N/A
Airport Boston Logan International Airport (KBOS)
Time Latitude Longitude Altitude Speed Heading
2026-05-08 01:26 43.68304 -79.62131 570 ft 0 kts 103°
2026-05-08 01:31 43.68304 -79.62132 570 ft 0 kts 103°
2026-05-08 01:31 43.68306 -79.62143 570 ft 3 kts 103°
2026-05-08 01:31 43.68312 -79.62179 570 ft 3 kts 102°
2026-05-08 01:31 43.68315 -79.62196 570 ft 0 kts 102°
2026-05-08 01:33 43.68314 -79.62196 570 ft 0 kts 103°
2026-05-08 01:33 43.68314 -79.62195 570 ft 0 kts 114°
2026-05-08 01:33 43.68311 -79.62193 570 ft 0 kts 152°
2026-05-08 01:33 43.68302 -79.62205 570 ft 4 kts 241°
2026-05-08 01:34 43.68289 -79.62286 571 ft 12 kts 262°
2026-05-08 01:34 43.68264 -79.62433 571 ft 17 kts 266°
2026-05-08 01:34 43.68350 -79.62583 568 ft 23 kts 317°
2026-05-08 01:34 43.68480 -79.62753 562 ft 26 kts 317°
2026-05-08 01:35 43.68601 -79.62913 558 ft 20 kts 317°
2026-05-08 01:35 43.68706 -79.63048 556 ft 20 kts 317°
2026-05-08 01:35 43.68807 -79.63180 556 ft 19 kts 316°
2026-05-08 01:35 43.68909 -79.63316 553 ft 20 kts 317°
2026-05-08 01:36 43.69024 -79.63466 550 ft 24 kts 316°
2026-05-08 01:36 43.69141 -79.63496 547 ft 19 kts 45°
2026-05-08 01:36 43.69219 -79.63425 549 ft 11 kts
2026-05-08 01:36 43.69309 -79.63422 548 ft 14 kts
2026-05-08 01:37 43.69380 -79.63454 547 ft 11 kts 317°
2026-05-08 01:37 43.69398 -79.63534 546 ft 9 kts 226°
2026-05-08 01:37 43.69370 -79.63569 545 ft 1 kts 225°
2026-05-08 01:37 43.69363 -79.63578 545 ft 2 kts 226°
2026-05-08 01:38 43.69256 -79.63734 543 ft 56 kts 226°
2026-05-08 01:38 43.68827 -79.64357 543 ft 121 kts 227°
2026-05-08 01:38 43.68116 -79.65385 584 ft 168 kts 227°
2026-05-08 01:38 43.67314 -79.66541 1142 ft 170 kts 227°
2026-05-08 01:39 43.66485 -79.67721 1762 ft 175 kts 228°
2026-05-08 01:39 43.65639 -79.68935 2362 ft 179 kts 229°
2026-05-08 01:39 43.64743 -79.70209 2696 ft 192 kts 229°
2026-05-08 01:39 43.63787 -79.71582 3023 ft 206 kts 229°
2026-05-08 01:40 43.62765 -79.73045 3342 ft 221 kts 229°
2026-05-08 01:40 43.61635 -79.74651 3613 ft 243 kts 229°
2026-05-08 01:40 43.60164 -79.75900 4028 ft 264 kts 194°
2026-05-08 01:40 43.58313 -79.75723 4653 ft 277 kts 160°
2026-05-08 01:41 43.56807 -79.74141 5380 ft 283 kts 127°
2026-05-08 01:41 43.55961 -79.71674 6093 ft 286 kts 110°
2026-05-08 01:41 43.55226 -79.69142 6802 ft 289 kts 115°
2026-05-08 01:41 43.54283 -79.66687 7494 ft 293 kts 122°
2026-05-08 01:42 43.53194 -79.64323 8188 ft 297 kts 126°
2026-05-08 01:42 43.52002 -79.61983 8891 ft 300 kts 128°